ONEWEB-0066, 45424

Orbit data source: Space-Track

ONEWEB-0066, 45424 is a payload satellite owned by One Web (UK) in LEO that was launched on Sat, 21 Mar 2020 UTC via a SOYUZ-2-1B launch vehicle from the Tyuratam Missile And Space Complex (TTMTR). Payload-class satellites include a variety of spacecraft equipped with specific instruments for various scientific and technological missions. These include communications satellites like Starlink; space stations such as the ISS; scientific satellites like the Hubble; Earth observation satellites from companies like Planet Labs, Umbra, and HawkEye 360; GPS; miniature CubeSats for education and research; and military/defense satellites.

Loading next visibility...
Identifier
45424, 2020-020A
Orbit
LEO
Last TLE update
8 hours ago
Origin
Manufacturer
One Web
Mission
Operational Commercial Communications
Bus & Motor
ARROW, Unknown motor
Mass
148 kg wet, ~140 kg dry
Launch date (UTC)
2020-03-21 (5 years ago)
Launch vehicle
SOYUZ-2-1B
Launch site
Tyuratam Missile And Space Complex (TTMTR)
Object type
Payload
Rocket body
Debris
Shape & HBR
Trap Box + 2 Pan, 5 m
Radar Cross Section
2.957 m², Large (>1 m²)

Expand to show TLE details & history

TLE from 8 hours ago
0 ONEWEB-0066
1 45424U 20020A   25189.96381135 -.00000133  00000-0 -41068-3 0  9995
2 45424  87.8833  89.4743 0001996  88.4879 271.6477 13.11414327257692
Epoch: 2025-07-08T23:07Z
TLE epoch observation values (Epoch: 2025-07-08T23:07:53.3Z)
Latitude
-0.00009°
Longitude
175.35096°
Altitude
1,220.539 km
Speed
7.244 km/s
True Right ascension
05h 57m 53s
True Declination
0° 00' 00"
Sunlit
Object was in daylight at epoch
Visualization orbit readout
Latitude
83.40946°
Longitude
-23.27325°
Altitude
1,229.897 km
Speed
7.247 km/s
Apparent Right ascension
07h 33m 55s
Apparent Declination
39° 24' 09"
Sunlit
Object is in daylight
Visualization observer readout
Local Sidereal Time
19:06:06
Azimuth
354.542° N
Elevation
-10.427°
Doppler factor
1
Orbital elements
Apogee altitude
1,216.327 km
Perigee altitude
1,213.296 km
Semi-major axis
7,592.948 km
Eccentricity
0.0002
Inclination
87.8833°
RAAN
89.4743°
Arg. of periapsis
88.4879°
True anomaly
Unknown
Mean anomaly
271.6477°
Eccentric anomaly
Unknown
Mean motion
3.28041 °/min
Orbital period
109.74 mins
BSTAR
-0.00041068
Loading maneuver chart data...
Loading SW <> Apogee altitude chart data...
Loading historical data...
Loading historical data...
Loading historical data...
Loading historical data...
Loading historical data...
Loading historical data...
Loading historical data...

ONEWEB-0066 Visibility forecast

Observer location: undefined°, undefined°

Span
Click to sort rows by Start time (UTC) header in descending order
Start Az.
Max El. time (UTC)
Max El. Az.
Max El.
End time (UTC)
End Az.
9 mins2025-07-09 07:04:41.797Z327.893° NNW2025-07-09 07:09:41.797Z281.17° WNW20.497°2025-07-09 07:13:41.797Z244.173° WSW
13 mins2025-07-09 17:32:41.797Z168.616° S2025-07-09 17:38:41.797Z90.423° ESE43.731°2025-07-09 17:45:41.797Z4.938° NNE
8 mins2025-07-09 19:25:41.797Z251.276° W2025-07-09 19:29:41.797Z289.354° WNW18.419°2025-07-09 19:33:41.797Z325.084° NNW
12 mins2025-07-10 05:02:41.797Z10.663° NNE2025-07-10 05:08:41.797Z95.706° ESE40.415°2025-07-10 05:14:41.797Z162.722° S
|